Home > Weather > Adelaide > Past weeks

Flag for Australia Past Weather in Adelaide, South Australia, Australia — Yesterday and Last 2 Weeks

Now
48 °F

Passing clouds.


Feels Like: 44 °F
Forecast: 48 / 58 °F
Wind: 9 mph from Northeast

Location: Adelaide Airport

Current Time: Jun 28, 2016 at 4:12:51 AM

Latest Report: Jun 28, 2016 at 3:30 AM


Visibility: N/A

Pressure: 30.24 "Hg

Humidity: 87%

Dew Point: 45 °F

Location of AdelaideLocation

Past Weather in Adelaide — Graph

°F

Adelaide Temperature Yesterday

Maximum temperature yesterday: 59 °F (at 12:30 PM)
Minimum temperature yesterday: 48 °F (at 2:00 AM)
Average temperature yesterday: 52 °F

High & Low Weather Summary for the Past Weeks

 TemperatureHumidityPressure
High68 °F (Jun 15, 1:30 PM)100% (Jun 16, 4:30 PM)30.54 "Hg (Jun 16, 4:30 PM)
Low41 °F (Jun 13, 4:00 AM)38% (Jun 15, 3:00 PM)29.53 "Hg (Jun 21, 1:00 PM)
Average54 °F75%30.03 "Hg
* Reported Jun 13 2:30 AM — Jun 28 2:30 AM, Adelaide, Weather by CustomWeather, © 2016

Note: Actual official high and low records may vary slightly from our data, if they occured in-between our weather recording intervals... More about our weather records

Advertising

Adelaide Weather History for the Previous 24 Hours

Scroll right to see more
 ConditionsComfort  
Time TempWeatherWind HumidityBarometerVisibility
2:30 AM
Tue, Jun 28
48 °FPassing clouds.10 mph87%30.24 "HgN/A
2:00 AM48 °FPassing clouds.8 mph87%30.24 "HgN/A
1:30 AM48 °FPassing clouds.9 mph87%30.24 "HgN/A
1:00 AM48 °FPassing clouds.9 mph87%30.24 "HgN/A
12:30 AM48 °FPassing clouds.10 mph94%30.24 "HgN/A
12:00 AM50 °FPassing clouds.8 mph88%30.24 "HgN/A
11:30 PM
Mon, Jun 27
50 °FPassing clouds.8 mph88%30.24 "HgN/A
11:00 PM48 °FPassing clouds.9 mph94%30.24 "HgN/A
10:30 PM48 °FPassing clouds.8 mph94%30.24 "HgN/A
10:00 PM48 °FPassing clouds.6 mph87%30.24 "HgN/A
9:30 PM48 °FPassing clouds.5 mph87%30.24 "HgN/A
9:00 PM48 °FPassing clouds.6 mph87%30.21 "HgN/A
8:30 PM48 °FPassing clouds.6 mph87%30.21 "HgN/A
8:00 PM48 °FPassing clouds.3 mph87%30.21 "HgN/A
7:30 PM48 °FPassing clouds.6 mph87%30.21 "HgN/A
7:00 PM52 °FPassing clouds.5 mph77%30.21 "HgN/A
6:30 PM54 °FPassing clouds.6 mph72%30.18 "HgN/A
6:00 PM54 °FPassing clouds.6 mph72%30.18 "HgN/A
5:30 PM54 °FPassing clouds.6 mph72%30.18 "HgN/A
5:00 PM55 °FPassing clouds.6 mph67%30.18 "HgN/A
4:30 PM57 °FPassing clouds.8 mph63%30.15 "HgN/A
4:00 PM57 °FPassing clouds.6 mph63%30.15 "HgN/A
3:30 PM59 °FPassing clouds.8 mph59%30.15 "HgN/A
3:00 PM59 °FPassing clouds.9 mph59%30.15 "HgN/A
2:30 PM59 °FScattered clouds.9 mph55%30.15 "HgN/A
2:00 PM59 °FPassing clouds.9 mph55%30.15 "HgN/A
1:30 PM59 °FPassing clouds.6 mph55%30.15 "HgN/A
1:00 PM57 °FPassing clouds.8 mph55%30.15 "HgN/A
12:30 PM59 °FPassing clouds.7 mph63%30.15 "HgN/A
12:00 PM57 °FPassing clouds.7 mph67%30.15 "HgN/A
11:30 AM57 °FPassing clouds.8 mph67%30.15 "HgN/A
11:00 AM57 °FPassing clouds.6 mph67%30.15 "HgN/A
10:30 AM57 °FPassing clouds.1 mph72%30.15 "HgN/A
10:00 AM55 °FPassing clouds.3 mph82%30.15 "HgN/A
9:30 AM52 °FPassing clouds.5 mph94%30.15 "HgN/A
9:00 AM50 °FPassing clouds.3 mph94%30.15 "HgN/A
8:30 AM48 °FScattered clouds.6 mph94%30.12 "HgN/A
7:30 AM48 °FBroken clouds.8 mph100%30.09 "HgN/A
7:00 AM48 °FBroken clouds.8 mph100%30.09 "HgN/A
6:30 AM48 °FScattered showers. Partly cloudy.7 mph100%30.07 "HgN/A
6:00 AM48 °FPartly cloudy.7 mph100%30.07 "Hg6 mi
5:30 AM50 °FSprinkles. Mostly cloudy.7 mph94%30.07 "Hg6 mi
5:00 AM50 °FRain showers. Mostly cloudy.8 mph94%30.04 "Hg3 mi
4:30 AM48 °FRain showers. Mostly cloudy.7 mph100%30.04 "Hg3 mi
Weather by CustomWeather, © 2016

See weather overviewHow to use our weather pages